EW3364 Weather Reports


time (UTC)temp
F
wind
direction
speed
knots
gust
knots
rain 1hr
in
rain 24hr
in
rain mn
in
humidity
%
barometer
mb
20260510190040 79 171 3.5 11.3 0.00 0.30 0.01 81 1017.1
20260510184531 79 165 5.2 13.0 0.00 0.30 0.01 81 1017.2
20260510183032 -90 182 4.3 11.3 0.00 0.30 0.01 1017.5
20260510181538 77 346 5.2 12.2 0.00 0.30 0.01 84 1017.6
20260510180028 77 163 3.5 14.8 0.00 0.67 0.01 1017.8
20260510174512 78 236 2.6 13.0 0.00 0.67 0.01 85 1018.1
20260510173014 -90 185 4.3 8.7 0.00 0.67 0.01 1017.9
20260510171504 -90 140 4.3 11.3 0.00 0.67 0.01 1018.2
20260510170104 -90 146 4.3 11.3 0.00 0.76 0.01 1018.3
20260510164609 -90 154 4.3 10.4 0.00 0.76 0.01 1018.2
20260510163050 -90 204 4.3 11.3 0.00 0.76 0.01 1018.1
20260510161546 -90 188 2.6 9.6 0.00 0.76 0.01 1018.1
20260510160043 -90 163 3.5 7.8 0.00 0.81 0.01 1018.0
20260510154538 -90 121 4.3 7.8 0.00 0.81 0.01 1018.2
20260510153043 -90 138 3.5 8.7 0.00 0.81 0.01 1018.0
20260510151533 -90 117 6.1 10.4 0.00 0.81 0.01 1018.0
20260510150024 -90 105 6.1 8.7 0.00 0.85 0.01 1017.9
20260510144533 -90 110 5.2 9.6 0.00 0.85 0.01 1017.9
20260510143015 -90 132 7.0 10.4 0.00 0.85 0.01 1017.8
20260510141510 -90 98 6.1 9.6 0.00 0.85 0.01 1017.8
20260510140008 -90 156 1.7 7.0 0.00 0.99 0.01 1017.8
20260510134501 -90 157 4.3 7.8 0.00 0.99 0.01 1017.8
20260510133100 -90 123 3.5 8.7 0.00 0.99 0.01 1017.7
20260510131553 -90 128 3.5 7.8 0.00 0.99 0.01 1017.4
20260510130049 -90 123 5.2 8.7 0.00 0.99 0.01 1017.1
20260510124548 -90 135 4.3 7.8 0.00 0.99 0.01 1016.9
20260510123040 -90 134 4.3 7.0 0.00 0.99 0.01 1016.6
20260510121536 -90 173 2.6 5.2 0.00 0.99 0.01 1016.4
20260510120035 -90 157 2.6 6.1 0.00 0.99 0.01 1016.3
20260510114529 -90 151 1.7 6.1 0.00 0.99 0.01 1016.2
20260510113022 -90 178 1.7 5.2 0.00 0.99 0.01 1016.0
20260510111518 -90 176 3.5 7.0 0.00 0.99 0.01 1015.6
20260510110017 -90 140 3.5 6.1 0.01 0.99 0.01 1015.4
20260510104509 -90 169 2.6 5.2 0.01 0.99 0.01 1015.3
20260510103006 -90 176 0.9 6.1 0.01 0.99 0.01 1014.9
20260510101603 -90 180 2.6 5.2 0.01 0.99 0.01 1014.8
20260510100059 -90 189 0.9 2.6 0.00 0.98 0.00 1014.7
20260510094552 -90 182 0.0 2.6 0.00 0.98 0.00 1014.6
20260510093047 -90 145 1.7 4.3 0.00 0.98 0.00 1014.5
20260510091543 -90 135 1.7 4.3 0.00 0.98 0.00 1014.3
20260510090041 -90 101 0.9 4.3 0.00 0.98 0.00 1014.4
20260510084541 -90 96 0.9 6.1 0.00 0.98 0.00 1014.3
20260510083037 -90 30 2.6 5.2 0.00 0.98 0.00 1014.1
20260510081525 -90 61 0.0 2.6 0.00 0.98 0.00 1014.0
20260510080021 -90 58 0.9 2.6 0.00 0.98 0.00 1013.9
20260510074517 -90 88 0.0 0.9 0.00 0.98 0.00 1013.7
20260510073012 -90 74 0.0 3.5 0.00 0.98 0.00 1013.6
20260510071508 -90 105 0.9 4.3 0.00 0.98 0.00 1013.6
20260510070004 -90 69 0.9 3.5 0.00 0.98 0.00 1013.6
20260510064612 -90 82 1.7 2.6 0.00 0.98 0.00 1013.6
20260510063102 -90 77 0.9 4.3 0.00 0.98 0.00 1013.6
20260510061551 -90 189 0.9 1.7 0.00 0.98 0.00 1013.6
20260510060055 -90 195 0.0 0.9 0.00 0.98 0.00 1013.4
20260510054541 -90 195 0.0 0.0 0.00 0.98 0.00 1013.5
20260510053041 -90 195 0.0 1.7 0.00 0.98 0.00 1013.5
20260510051540 -90 184 2.6 5.2 0.00 0.98 0.00 1013.3
20260510050029 -90 167 0.9 4.3 0.00 0.98 0.98 1013.7
20260510044529 -90 212 1.7 5.2 0.00 0.98 0.98 1013.7
20260510043024 -90 217 1.7 7.0 0.00 0.98 0.98 1013.9
20260510041516 -90 202 3.5 6.1 0.00 0.98 0.98 1013.9
20260510040012 -90 232 1.7 5.2 0.00 0.98 0.98 1014.4
20260510034507 -90 246 1.7 7.0 0.00 0.98 0.98 1014.6
20260510033004 -90 244 0.9 4.3 0.00 0.98 0.98 1014.9
20260510031601 -90 233 2.6 4.3 0.00 0.98 0.98 1014.8
20260510030057 -90 237 0.0 3.5 0.00 0.98 0.98 1014.4
20260510024556 -90 231 0.9 7.0 0.00 0.98 0.98 1014.6
20260510023047 -90 238 0.9 7.0 0.00 0.98 0.98 1014.2
20260510021541 -90 234 1.7 6.1 0.01 0.98 0.98 1013.9
20260510020040 -90 194 4.3 8.7 0.01 0.98 0.98 1013.6
20260510014531 -90 188 4.3 11.3 0.02 0.98 0.98 1013.7
20260510013029 -90 247 4.3 10.4 0.02 0.98 0.98 1013.6
20260510011534 -90 179 2.6 7.0 0.01 0.97 0.97 1013.6
20260510010024 -90 197 1.7 7.0 0.00 0.96 0.96 1013.6
20260510004514 -90 201 3.5 8.7 0.01 0.96 0.96 1013.9
20260510003010 -90 195 1.7 7.0 0.02 0.96 0.96 1013.5
20260510001507 -90 196 0.9 5.2 0.02 0.96 0.96 1013.6
20260510000002 -90 222 0.0 2.6 0.03 0.99 0.96 1013.5
20260509234605 -90 223 0.9 2.6 0.03 0.98 0.95 1014.0
20260509233052 -90 213 0.0 1.7 0.02 0.97 0.94 1013.7
20260509231549 -90 214 0.0 6.1 0.03 0.97 0.94 1013.4
20260509230045 -90 211 2.6 7.0 0.02 1.12 0.93 1013.3
20260509224539 -90 228 3.5 7.8 0.01 1.11 0.92 1013.3
20260509223034 -90 236 3.5 7.8 0.01 1.11 0.92 1013.2
20260509221551 -90 211 2.6 7.0 0.01 1.10 0.91 1012.9
20260509220028 -90 223 2.6 7.8 0.01 2.29 0.91 1012.3
20260509214521 -90 181 2.6 6.1 0.01 2.29 0.91 1012.5
20260509213017 -90 229 3.5 14.8 0.02 2.29 0.91 1012.6
20260509211514 -90 269 2.6 10.4 0.02 2.27 0.90 1012.9
20260509210008 -90 185 4.3 10.4 0.04 2.45 0.90 1012.6
20260509204504 -90 142 2.6 11.3 0.06 2.45 0.90 1012.5
20260509203101 -90 190 0.9 3.5 0.06 2.44 0.89 1012.8
20260509201555 -90 173 0.0 4.3 0.06 2.43 0.88 1013.3
20260509200058 -90 205 0.0 3.5 0.04 2.41 0.86 1013.5
20260509194546 -90 177 0.0 1.7 0.06 2.39 0.84 1013.6
20260509193051 -90 167 0.0 2.6 0.09 2.38 0.83 1013.9
20260509191552 -90 205 0.9 7.8 0.09 2.37 0.82 1013.9